Location: Erlenbrunn
(49.1717°N, 7.6142°E)
Time: 06:05:15
(UTC+00:00)

Cosmos 2219 Rocket - Pass Details

Date: 25 November 2020
Orbit: 829 x 845 km, 71.0° (Epoch: 27 January)

Event Time Altitude Azimuth Distance (km) Brightness Sun altitude
Rises 17:17:38 0° 240° (WSW) 3,389 6.9 -15.8°
Reaches altitude 10° 17:20:21 10° 250° (WSW) 2,455 6.0 -16.3°
Maximum altitude 17:25:19 31° 313° (NW) 1,429 3.7 -17.0°
Drops below altitude 10° 17:30:18 10° 15° (NNE) 2,458 4.4 -17.8°
Enters shadow 17:31:06 - 19° (NNE) 2,722 4.6 -18.0°
